Weather in Semion

Russia / Ryazan Oblast     54°03′48″N   40°09′28″E
temp.,
°C
wind,
m/s
gust,
m/s
humid.,
%
clouds,
%
prec.,
mm/h
press.,
hPa
HPBL,
m
18 january, mon
mon1800:00−24ene1110085 0.0 101820
03:00−24ne119887 0.0 101920
06:00−23ne129799 0.0 101920
09:00−23nne2297100 0.0 102041
12:00−20e1192100 0.0 1020208
15:00−19n2393100 0.0 1019263
18:00−20ene1296100 0.0 101994
21:00−19n1296100 0.1 1019119
19 january, tue
tue1900:00−19nne1297100 0.1 1019101
03:00−19nw1198100 0.4 101961
06:00−19n1298100 0.4 101891
09:00−19nw1198100 0.6 101834
12:00−17wnw1292100 0.3 1018296
15:00−16nw2395100 0.6 1016288
18:00−17wnw2297100 0.4 101744
21:00−18wnw229799 0.5 101725
20 january, wed
wed2000:00−18wnw229794 0.1 101734
03:00−17w229796 0.1 101837
06:00−17wnw2497100 0.1 1018117
09:00−17w249797 0.2 1019133
12:00−15wnw349591 0.0 1020222
15:00−15w349579 0.1 1020181
18:00−19w339620 0.0 102233
21:00−20wsw339716 0.0 102335
21 january, thu
thu2100:00−20sw339820 0.0 102440
03:00−20sw349712 0.0 102454
06:00−20ssw459118 0.0 102394
09:00−19ssw5109236 0.0 1022202
12:00−15ssw7128882 0.0 1020320
15:00−12ssw8169389 0.1 1016466
18:00−8sw81692100 0.7 1014640
21:00−5sw81691100 0.9 1011644
22 january, fri
fri2200:000wsw8169398 0.3 1009667
03:00+1wsw8159399 0.7 1008625
06:000wsw71491100 0.4 1009574
09:000wsw51193100 0.4 1010578
12:000wsw61094100 0.0 1010582
15:00+1wsw41097100 0.0 1010532
18:00+1wsw4994100 0.0 1011360
21:00+1sw4797100 0.0 1012288